DW3384 Weather Reports


time (UTC)temp
F
wind
direction
speed
knots
gust
knots
rain 1hr
in
rain 24hr
in
rain mn
in
humidity
%
barometer
mb
20260506004547 52 40 0.9 6.1 0.00 0.00 0.00 60 1004.7
20260506003047 53 5 0.9 3.5 0.00 0.00 0.00 60 1004.6
20260506001546 53 96 3.5 7.8 0.00 0.00 0.00 59 1004.5
20260506000044 53 51 1.7 5.2 0.00 0.00 0.00 59 1004.3
20260505234544 53 39 0.9 4.3 0.00 0.00 0.00 59 1004.4
20260505233043 53 57 0.9 5.2 0.00 0.00 0.00 59 1004.8
20260505231543 53 41 1.7 7.0 0.00 0.00 0.00 60 1004.7
20260505230051 53 89 4.3 10.4 0.00 0.00 0.00 59 1004.6
20260505224538 53 48 4.3 10.4 0.00 0.00 0.00 59 1004.4
20260505223047 53 93 4.3 11.3 0.00 0.00 0.00 58 1004.4
20260505221535 54 32 1.7 9.6 0.00 0.00 0.00 55 1004.0
20260505220035 55 30 1.7 8.7 0.00 0.00 0.00 53 1003.8
20260505214530 55 329 2.6 9.6 0.00 0.00 0.00 52 1003.4
20260505213048 56 347 2.6 8.7 0.00 0.00 0.00 51 1003.5
20260505211530 56 56 2.6 9.6 0.00 0.00 0.00 50 1003.5
20260505210030 56 22 2.6 7.0 0.00 0.00 0.00 49 1003.5
20260505204528 56 50 3.5 10.4 0.00 0.00 0.00 50 1003.6
20260505203041 56 5 4.3 8.7 0.00 0.00 0.00 49 1003.7
20260505201528 57 351 3.5 13.0 0.00 0.00 0.00 49 1003.8
20260505200034 57 339 5.2 9.6 0.00 0.00 0.00 49 1003.7
20260505194526 57 321 2.6 9.6 0.00 0.00 0.00 49 1003.8
20260505193025 56 347 1.7 7.8 0.00 0.00 0.00 50 1003.6
20260505191525 57 44 4.3 11.3 0.00 0.00 0.00 49 1003.5
20260505190024 56 42 3.5 6.1 0.00 0.00 0.00 48 1003.4
20260505184525 56 23 3.5 9.6 0.00 0.00 0.00 49 1003.4
20260505183022 56 9 7.8 12.2 0.00 0.00 0.00 50 1003.7
20260505181521 56 58 5.2 10.4 0.00 0.00 0.00 50 1003.5
20260505180019 56 86 2.6 8.7 0.00 0.00 0.00 50 1003.6
20260505174518 56 37 3.5 7.8 0.00 0.00 0.00 49 1003.5
20260505173035 56 40 2.6 13.0 0.00 0.00 0.00 51 1003.3
20260505171518 56 34 1.7 9.6 0.00 0.00 0.00 50 1003.4
20260505170022 56 54 2.6 9.6 0.00 0.00 0.00 50 1003.1
20260505164532 55 351 4.3 13.0 0.00 0.00 0.00 51 1002.9
20260505163014 55 27 3.5 9.6 0.00 0.00 0.00 52 1002.7
20260505161510 55 22 2.6 12.2 0.00 0.00 0.00 54 1002.5
20260505153006 55 327 7.0 18.2 0.00 0.00 0.00 55 1001.6
20260505151605 55 60 2.6 9.6 0.00 0.00 0.00 56 1001.4
20260505124537 55 30 5.2 12.2 0.00 0.00 0.00 51 998.8
20260505123029 56 355 7.0 17.4 0.00 0.00 0.00 51 998.3
20260505121530 56 317 3.5 13.9 0.00 0.00 0.00 52 998.1
20260505120024 56 360 7.8 17.4 0.00 0.00 0.00 50 997.5
20260505114532 57 336 7.0 19.1 0.00 0.00 0.00 51 997.2
20260505113017 58 330 9.6 18.2 0.00 0.00 0.00 51 997.1
20260505111513 59 42 3.5 14.8 0.00 0.00 0.00 53 997.0
20260505101603 60 355 6.1 13.0 0.00 0.00 0.00 69 995.0
20260505100055 60 355 7.0 14.8 0.00 0.00 0.00 69 994.2
20260505094553 62 11 4.3 11.3 0.00 0.00 0.00 69 993.9
20260505093046 64 328 4.3 8.7 0.00 0.00 0.00 59 993.4
20260505091553 66 338 0.9 5.2 0.00 0.00 0.00 38 993.1
20260505090051 69 304 2.6 7.8 0.00 0.00 0.00 24 992.6
20260505084537 70 276 5.2 9.6 0.00 0.00 0.00 23 992.1
20260505083040 75 322 6.1 13.0 0.00 0.00 0.00 19 992.0
20260505081545 74 262 7.8 13.9 0.00 0.00 0.00 21 991.6
20260505080037 75 263 7.8 13.9 0.00 0.00 0.00 21 991.3
20260505074523 75 248 6.1 10.4 0.00 0.00 0.00 21 991.3
20260505073021 75 257 6.1 11.3 0.00 0.00 0.00 21 991.6
20260505071525 76 272 6.1 12.2 0.00 0.00 0.00 20 991.8
20260505070023 75 252 7.0 12.2 0.00 0.00 0.00 20 991.8
20260505064516 75 254 6.1 11.3 0.00 0.00 0.00 20 991.9
20260505063015 75 279 5.2 10.4 0.00 0.00 0.00 21 992.0
20260505061523 74 270 6.1 12.2 0.00 0.00 0.00 21 992.1
20260505060011 75 267 5.2 11.3 0.00 0.00 0.00 20 992.2
20260505054513 75 221 4.3 8.7 0.00 0.00 0.00 19 992.2
20260505053004 74 239 7.0 11.3 0.00 0.00 0.00 20 992.4
20260505051503 75 233 3.5 7.8 0.00 0.00 0.00 20 992.4
20260505041559 72 228 2.6 7.8 0.00 0.00 0.00 26 992.7
20260505040100 71 248 1.7 2.6 0.00 0.00 0.00 28 992.7
20260505034558 73 232 0.9 2.6 0.00 0.00 0.00 27 992.8
20260505033058 74 230 0.9 1.7 0.00 0.00 0.00 24 992.8
20260505031605 76 244 0.9 2.6 0.00 0.00 0.00 23 992.7
20260505030057 77 248 0.9 2.6 0.00 0.00 0.00 22 992.6
20260505024609 78 184 1.7 3.5 0.00 0.00 0.00 21 992.3
20260505023056 79 184 0.9 3.5 0.00 0.00 0.00 20 992.3
20260505021611 79 206 0.9 2.6 0.00 0.00 0.00 20 992.3
20260505020054 80 209 0.9 3.5 0.00 0.00 0.00 20 992.1
20260505014554 81 228 0.9 2.6 0.00 0.00 0.00 19 992.1
20260505013054 82 244 0.9 2.6 0.00 0.00 0.00 18 992.1
20260505011557 84 225 1.7 5.2 0.00 0.00 0.00 18 991.9
20260505010052 85 269 2.6 6.1 0.00 0.00 0.00 17 991.9